Dewar Lakes, Nunavut

12:07 PM EDT on April 23, 2018 (GMT -0400)
Dewar Lakes

Weather History for CWUW - October, 2012

Change the Weather History Date:

Friday, October 5, 2012

  Actual Average Record
Temperature  
Mean Temperature 12 °F -  
Max Temperature 16 °F 15 °F 30 °F (2004)
Min Temperature 8 °F 6 °F 5 °F (2005)
Degree Days  
Heating Degree Days 53    
Moisture  
Dew Point -    
Average Humidity    
Maximum Humidity    
Minimum Humidity    
Precipitation  
Precipitation 0.00 in 0.04 in - ()
Sea Level Pressure  
Sea Level Pressure 29.83 in    
Wind  
Wind Speed 8 mph ()    
Max Wind Speed 16 mph    
Max Gust Speed -    
Visibility 6.5 miles    
Events Snow    
Averages and records for this station are not official NWS values.
T = Trace of Precipitation, MM = Missing Value Source: Averaged Metar Reports

Daily Weather History Graph

Daily Weather History Graph

Search for Another Location

Airport or City:

Astronomy

Oct. 05, 2012 Rise Set
Actual Time 7:15 AM EDT 5:48 PM EDT
Civil Twilight 6:17 AM EDT 6:45 PM EDT
Nautical Twilight 5:10 AM EDT 7:52 PM EDT
Astronomical Twilight 3:56 AM EDT 9:05 PM EDT
Moon 5:39 PM EDT (10/5) 3:51 PM EDT (10/5)
Length of Visible Light 12h 27m
Length of Day
10h 33m
Waning Gibbous, 74% of the Moon is Illuminated
Oct 5
Waning Gibbous
Oct 8
Last Quarter
Oct 15
New
Oct 21
First Quarter
Oct 29
Full

Hourly Weather History & Observations

Time (EDT) Temp. Windchill Dew Point Humidity Pressure Visibility Wind Dir Wind Speed Gust Speed Precip Events Conditions
12:00 AM 15.8 °F 7.2 °F - N/A% 29.94 in 3.5 mi West 5.8 mph - N/A   Overcast
12:08 AM 15.8 °F 6.1 °F - N/A% 29.78 in 2.0 mi WSW 6.9 mph - N/A Snow Light Snow
12:12 AM 15.8 °F 6.1 °F - N/A% 29.78 in 2.0 mi WSW 6.9 mph - N/A Snow Light Snow
12:16 AM 15.8 °F 7.2 °F - N/A% 29.78 in 3.0 mi WSW 5.8 mph - N/A Snow Light Snow
12:21 AM 15.8 °F 7.2 °F - N/A% 29.78 in 3.0 mi WSW 5.8 mph - N/A   Mostly Cloudy
12:23 AM 15.8 °F 7.2 °F - N/A% 29.78 in 3.0 mi WSW 5.8 mph - N/A Snow Light Snow
12:24 AM 15.8 °F 7.2 °F - N/A% 29.78 in 4.0 mi WSW 5.8 mph - N/A Snow Light Snow
12:27 AM 15.8 °F 8.6 °F - N/A% 29.78 in 4.0 mi WSW 4.6 mph - N/A   Overcast
12:43 AM 15.8 °F 10.2 °F - N/A% 29.78 in 9.0 mi SSW 3.5 mph - N/A   Overcast
12:57 AM 15.8 °F - - N/A% 29.78 in 9.0 mi SSW 2.3 mph - N/A   Overcast
1:00 AM 15.8 °F 10.2 °F - N/A% 29.94 in 6.0 mi SSW 3.5 mph - N/A   Overcast
1:08 AM 15.8 °F 10.2 °F - N/A% 29.78 in 2.4 mi SW 3.5 mph - N/A   Overcast
1:13 AM 15.8 °F 10.2 °F - N/A% 29.78 in 3.0 mi WSW 3.5 mph - N/A   Scattered Clouds
1:20 AM 15.8 °F 7.2 °F - N/A% 29.78 in 3.0 mi WSW 5.8 mph - N/A   Mostly Cloudy
1:21 AM 15.8 °F 6.1 °F - N/A% 29.78 in 9.0 mi WSW 6.9 mph - N/A   Mostly Cloudy
1:28 AM 15.8 °F 7.2 °F - N/A% 29.78 in 9.0 mi WSW 5.8 mph - N/A   Overcast
1:33 AM 15.8 °F 7.2 °F - N/A% 29.78 in 5.0 mi West 5.8 mph - N/A   Overcast
1:34 AM 15.8 °F 7.2 °F - N/A% 29.78 in 5.0 mi West 5.8 mph - N/A Snow Light Snow
1:36 AM 15.8 °F 7.2 °F - N/A% 29.78 in 4.0 mi WSW 5.8 mph - N/A Snow Light Snow
1:39 AM 15.8 °F 7.2 °F - N/A% 29.77 in 4.0 mi West 5.8 mph - N/A Snow Light Snow
1:45 AM 15.8 °F 7.2 °F - N/A% 29.77 in 9.0 mi West 5.8 mph - N/A Snow Light Snow
1:48 AM 15.8 °F 7.2 °F - N/A% 29.78 in 9.0 mi West 5.8 mph - N/A   Overcast
1:56 AM 15.8 °F 7.2 °F - N/A% 29.78 in 2.5 mi WNW 5.8 mph - N/A Snow Light Snow
2:00 AM 16 °F - - % 29.93 in 1 mi WNW 6.9 mph - -  
2:00 AM 15.8 °F 6.1 °F - N/A% 29.93 in 1.4 mi WNW 6.9 mph - N/A Snow Light Snow
2:05 AM 15.8 °F 6.1 °F - N/A% 29.78 in 1.0 mi WNW 6.9 mph - N/A Snow Light Snow
2:23 AM 15.8 °F 1.4 °F - N/A% 29.77 in 1.0 mi WNW 13.8 mph - N/A Snow Light Snow
2:25 AM 15.8 °F 0.9 °F - N/A% 29.77 in 1.0 mi WNW 15.0 mph - N/A Snow Light Snow
2:28 AM 15.8 °F 2.7 °F - N/A% 29.77 in 1.5 mi WNW 11.5 mph - N/A Snow Light Snow
2:38 AM 15.8 °F 2.1 °F - N/A% 29.77 in 3.0 mi WNW 12.7 mph - N/A Snow Light Snow
2:42 AM 15.8 °F 0.3 °F - N/A% 29.77 in 3.0 mi WNW 16.1 mph - N/A   Overcast
2:45 AM 15.8 °F 0.9 °F - N/A% 29.77 in 8.0 mi WNW 15.0 mph - N/A Snow Light Snow
3:00 AM 14.0 °F 0.5 °F - N/A% 29.93 in 5.0 mi WNW 11.5 mph - N/A Snow Light Snow
3:06 AM 14.0 °F 0.5 °F - N/A% 29.78 in 9.0 mi WNW 11.5 mph - N/A   Overcast
3:10 AM 14.0 °F -0.8 °F - N/A% 29.78 in 9.0 mi WNW 13.8 mph - N/A   Overcast
3:13 AM 14.0 °F 2.9 °F - N/A% 29.78 in 9.0 mi NW 8.1 mph - N/A   Overcast
3:38 AM 14.0 °F 1.2 °F - N/A% 29.78 in 9.0 mi West 10.4 mph - N/A   Overcast
4:00 AM 14.0 °F 2.9 °F - N/A% 29.93 in 9.0 mi West 8.1 mph - N/A   Overcast
4:04 AM 14.0 °F 2.9 °F - N/A% 29.78 in 9.0 mi West 8.1 mph - N/A   Overcast
4:20 AM 14.0 °F 2.9 °F - N/A% 29.77 in 9.0 mi West 8.1 mph - N/A   Partly Cloudy
4:21 AM 14.0 °F 2.9 °F - N/A% 29.77 in 9.0 mi West 8.1 mph - N/A   Overcast
4:41 AM 14.0 °F 2.9 °F - N/A% 29.77 in 9.0 mi WNW 8.1 mph - N/A   Overcast
4:52 AM 14.0 °F 2.0 °F - N/A% 29.77 in 9.0 mi West 9.2 mph - N/A   Overcast
4:59 AM 15.8 °F 2.1 °F - N/A% 29.77 in 9.0 mi West 12.7 mph - N/A   Overcast
5:00 AM 15 °F - - % 29.92 in 9 mi West 11.5 mph - -   Overcast
5:00 AM 15.8 °F 2.1 °F - N/A% 29.92 in 9.0 mi West 12.7 mph - N/A   Overcast
5:08 AM 15.8 °F 2.7 °F - N/A% 29.77 in 9.0 mi West 11.5 mph - N/A   Mostly Cloudy
5:53 AM 14.0 °F -0.2 °F - N/A% 29.77 in 9.0 mi West 12.7 mph - N/A   Overcast
6:00 AM 14.0 °F -0.8 °F - N/A% 29.93 in 9.0 mi West 13.8 mph - N/A   Overcast
6:25 AM 14.0 °F -0.2 °F - N/A% 29.77 in 9.0 mi West 12.7 mph - N/A   Overcast
7:00 AM 14.0 °F 2.0 °F - N/A% 29.93 in 9.0 mi WNW 9.2 mph - N/A   Overcast
7:06 AM 14.0 °F 2.0 °F - N/A% 29.77 in 9.0 mi WNW 9.2 mph - N/A   Overcast
7:26 AM 14.0 °F 2.0 °F - N/A% 29.77 in 9.0 mi WNW 9.2 mph - N/A   Overcast
7:36 AM 14.0 °F 0.5 °F - N/A% 29.77 in 9.0 mi NW 11.5 mph - N/A   Mostly Cloudy
7:38 AM 14.0 °F 1.2 °F - N/A% 29.77 in 9.0 mi NW 10.4 mph - N/A   Overcast
7:42 AM 14.0 °F 2.0 °F - N/A% 29.77 in 9.0 mi NW 9.2 mph - N/A   Overcast
7:48 AM 14.0 °F 3.9 °F - N/A% 29.77 in 9.0 mi NW 6.9 mph - N/A   Overcast
7:55 AM 14.0 °F 3.9 °F - N/A% 29.77 in 9.0 mi NW 6.9 mph - N/A   Overcast
8:00 AM 14.0 °F 2.9 °F - N/A% 29.93 in 9.0 mi NW 8.1 mph - N/A   Overcast
8:18 AM 14.0 °F 3.9 °F - N/A% 29.78 in 4.0 mi NW 6.9 mph - N/A Snow Light Snow
8:20 AM 14.0 °F 5.1 °F - N/A% 29.78 in 3.0 mi NW 5.8 mph - N/A Snow Light Snow
8:21 AM 14.0 °F 5.1 °F - N/A% 29.78 in 2.6 mi NW 5.8 mph - N/A Snow Light Snow
8:25 AM 14.0 °F 6.5 °F - N/A% 29.78 in 2.1 mi NW 4.6 mph - N/A Snow Light Snow
8:35 AM 14.0 °F 2.9 °F - N/A% 29.78 in 1.4 mi NW 8.1 mph - N/A Snow Light Snow
8:52 AM 14.0 °F 2.0 °F - N/A% 29.77 in 3.0 mi NW 9.2 mph - N/A   Clear
9:00 AM 14.0 °F 2.0 °F - N/A% 29.94 in 4.0 mi NW 9.2 mph - N/A   Clear
9:15 AM 14.0 °F -0.2 °F - N/A% 29.78 in 8.0 mi NW 12.7 mph - N/A   Clear
9:27 AM 14.0 °F -0.8 °F - N/A% 29.78 in 9.0 mi NW 13.8 mph - N/A   Overcast
9:45 AM 14.0 °F 0.5 °F - N/A% 29.78 in 7.0 mi NW 11.5 mph - N/A   Overcast
9:47 AM 14.0 °F 0.5 °F - N/A% 29.78 in 7.0 mi NW 11.5 mph - N/A   Overcast
9:52 AM 14.0 °F 1.2 °F - N/A% 29.78 in 8.0 mi NW 10.4 mph - N/A   Mostly Cloudy
9:55 AM 14.0 °F 0.5 °F - N/A% 29.78 in 9.0 mi NW 11.5 mph - N/A   Overcast
10:00 AM 14.0 °F 1.2 °F - N/A% 29.94 in 9.0 mi WNW 10.4 mph - N/A   Overcast
10:07 AM 14.0 °F 0.5 °F - N/A% 29.78 in 9.0 mi NW 11.5 mph - N/A   Mostly Cloudy
11:00 AM 15 °F - - % 29.94 in 9 mi NW 12.7 mph - -   Overcast
11:00 AM 14.0 °F -0.2 °F - N/A% 29.94 in 9.0 mi NW 12.7 mph - N/A   Overcast
11:56 AM 14.0 °F -0.8 °F - N/A% 29.78 in 9.0 mi WNW 13.8 mph - N/A   Overcast
12:00 PM 14.0 °F -0.2 °F - N/A% 29.94 in 9.0 mi WNW 12.7 mph - N/A   Overcast
12:28 PM 12.2 °F -0.2 °F - N/A% 29.78 in 9.0 mi WNW 9.2 mph - N/A   Scattered Clouds
1:00 PM 12.2 °F 1.7 °F - N/A% 29.95 in 9.0 mi NW 6.9 mph - N/A   Partly Cloudy
1:40 PM 14.0 °F 5.1 °F - N/A% 29.78 in 9.0 mi WNW 5.8 mph - N/A   Mostly Cloudy
2:00 PM 13 °F - - % 29.94 in 9 mi West 6.9 mph - -   Overcast
2:00 PM 14.0 °F 2.9 °F - N/A% 29.94 in 9.0 mi West 8.1 mph - N/A   Overcast
2:11 PM 14.0 °F 3.9 °F - N/A% 29.79 in 9.0 mi WNW 6.9 mph - N/A   Overcast
2:24 PM 14.0 °F 5.1 °F - N/A% 29.79 in 9.0 mi WNW 5.8 mph - N/A Snow Light Snow
2:28 PM 14.0 °F 3.9 °F - N/A% 29.79 in 9.0 mi West 6.9 mph - N/A   Overcast
3:00 PM 14.0 °F 3.9 °F - N/A% 29.94 in 9.0 mi NW 6.9 mph - N/A   Overcast
3:03 PM 14.0 °F 2.9 °F - N/A% 29.78 in 9.0 mi NW 8.1 mph - N/A   Overcast
3:36 PM 15.8 °F 8.6 °F - N/A% 29.79 in 9.0 mi WNW 4.6 mph - N/A   Overcast
3:37 PM 15.8 °F 8.6 °F - N/A% 29.79 in 9.0 mi NW 4.6 mph - N/A   Overcast
3:38 PM 15.8 °F 7.2 °F - N/A% 29.79 in 9.0 mi NW 5.8 mph - N/A   Overcast
3:43 PM 14.0 °F 2.9 °F - N/A% 29.79 in 9.0 mi NNW 8.1 mph - N/A   Overcast
3:54 PM 14.0 °F 2.9 °F - N/A% 29.79 in 9.0 mi NNW 8.1 mph - N/A Snow Light Snow
3:56 PM 14.0 °F 2.9 °F - N/A% 29.79 in 9.0 mi NNW 8.1 mph - N/A   Overcast
4:00 PM 14.0 °F 2.9 °F - N/A% 29.95 in 9.0 mi NNW 8.1 mph - N/A   Overcast
4:03 PM 14.0 °F 2.0 °F - N/A% 29.79 in 9.0 mi NNW 9.2 mph - N/A Snow Light Snow
4:40 PM 14.0 °F 3.9 °F - N/A% 29.80 in 9.0 mi North 6.9 mph - N/A   Mostly Cloudy
4:45 PM 14.0 °F 3.9 °F - N/A% 29.80 in 9.0 mi North 6.9 mph - N/A Snow Light Snow
4:49 PM 14.0 °F 3.9 °F - N/A% 29.80 in 9.0 mi North 6.9 mph - N/A   Overcast
4:55 PM 14.0 °F 5.1 °F - N/A% 29.80 in 9.0 mi North 5.8 mph - N/A Snow Light Snow
5:00 PM 13 °F - - % 29.96 in 9 mi North 5.8 mph - - Snow Light Snow
5:00 PM 14.0 °F 6.5 °F - N/A% 29.96 in 9.0 mi NNW 4.6 mph - N/A Snow Light Snow
5:03 PM 14.0 °F 6.5 °F - N/A% 29.80 in 9.0 mi NNW 4.6 mph - N/A Snow Light Snow
5:10 PM 14.0 °F 6.5 °F - N/A% 29.80 in 9.0 mi NW 4.6 mph - N/A   Overcast
5:29 PM 12.2 °F 4.3 °F - N/A% 29.80 in 9.0 mi NNW 4.6 mph - N/A   Overcast
5:38 PM 12.2 °F 2.9 °F - N/A% 29.80 in 9.0 mi NNW 5.8 mph - N/A   Scattered Clouds
6:00 PM 10.4 °F -2.4 °F - N/A% 29.97 in 9.0 mi NW 9.2 mph - N/A   Partly Cloudy
6:05 PM 10.4 °F -3.3 °F - N/A% 29.81 in 9.0 mi NW 10.4 mph - N/A   Mostly Cloudy
6:14 PM 10.4 °F -1.5 °F - N/A% 29.81 in 9.0 mi NW 8.1 mph - N/A   Partly Cloudy
6:45 PM 10.4 °F -2.4 °F - N/A% 29.81 in 9.0 mi NNW 9.2 mph - N/A   Clear
7:00 PM 10.4 °F -2.4 °F - N/A% 29.98 in 9.0 mi NNW 9.2 mph - N/A   Clear
7:32 PM 10.4 °F -2.4 °F - N/A% 29.82 in 9.0 mi NW 9.2 mph - N/A   Clear
7:47 PM 10.4 °F -4.1 °F - N/A% 29.82 in 9.0 mi NW 11.5 mph - N/A   Clear
7:55 PM 8.6 °F -5.5 °F - N/A% 29.82 in 2.6 mi WNW 10.4 mph - N/A   Clear
7:57 PM 10.4 °F -2.4 °F - N/A% 29.82 in 1.1 mi WNW 9.2 mph - N/A   Clear
7:58 PM 10.4 °F -2.4 °F - N/A% 29.82 in 0.8 mi NW 9.2 mph - N/A   Clear
7:59 PM 10.4 °F -2.4 °F - N/A% 29.82 in 0.6 mi NW 9.2 mph - N/A   Clear
8:00 PM 10 °F - - % 29.99 in 1 mi NW 9.2 mph - -  
8:00 PM 10.4 °F -2.4 °F - N/A% 29.99 in 0.6 mi NW 9.2 mph - N/A   Clear
8:07 PM 10.4 °F -2.4 °F - N/A% 29.82 in 0.4 mi NW 9.2 mph - N/A   Clear
8:20 PM 10.4 °F -0.4 °F - N/A% 29.82 in 1.0 mi NW 6.9 mph - N/A   Clear
8:23 PM 10.4 °F -0.4 °F - N/A% 29.82 in 3.5 mi NW 6.9 mph - N/A   Clear
8:43 PM 10.4 °F -1.5 °F - N/A% 29.82 in 9.0 mi NW 8.1 mph - N/A   Clear
9:00 PM 10.4 °F -1.5 °F - N/A% 29.99 in 9.0 mi NW 8.1 mph - N/A   Clear
9:44 PM 10.4 °F -2.4 °F - N/A% 29.82 in 1.2 mi WNW 9.2 mph - N/A   Clear
9:45 PM 10.4 °F -2.4 °F - N/A% 29.82 in 0.8 mi WNW 9.2 mph - N/A   Clear
9:46 PM 10.4 °F -2.4 °F - N/A% 29.82 in 0.6 mi WNW 9.2 mph - N/A   Clear
9:48 PM 10.4 °F -2.4 °F - N/A% 29.82 in 0.4 mi WNW 9.2 mph - N/A   Clear
9:59 PM 10.4 °F -2.4 °F - N/A% 29.83 in 0.6 mi WNW 9.2 mph - N/A   Clear
10:00 PM 10.4 °F -2.4 °F - N/A% 29.99 in 1.0 mi WNW 9.2 mph - N/A   Clear
10:02 PM 10.4 °F -2.4 °F - N/A% 29.83 in 2.0 mi WNW 9.2 mph - N/A   Clear
10:14 PM 10.4 °F -3.3 °F - N/A% 29.82 in 1.4 mi WNW 10.4 mph - N/A   Clear
10:22 PM 10.4 °F -3.3 °F - N/A% 29.82 in 3.5 mi WNW 10.4 mph - N/A   Clear
10:33 PM 10.4 °F -2.4 °F - N/A% 29.82 in 9.0 mi NW 9.2 mph - N/A   Clear
10:49 PM 10.4 °F -2.4 °F - N/A% 29.82 in 9.0 mi WNW 9.2 mph - N/A   Clear
11:00 PM 10 °F - - % 29.99 in 9 mi WNW 9.2 mph - -  
11:00 PM 10.4 °F -2.4 °F - N/A% 29.99 in 9.0 mi WNW 9.2 mph - N/A   Clear
11:51 PM 10.4 °F 0.8 °F - N/A% 29.82 in 9.0 mi WNW 5.8 mph - N/A   Mostly Cloudy